Weather History for Danbury, CT

Change the Weather History Date:

Saturday, April 6, 2013

  Actual Average Record
Temperature  
Mean Temperature 40 °F -  
Max Temperature 48 °F 54 °F 81 °F (1991)
Min Temperature 32 °F 33 °F 17 °F (1982)
Degree Days  
Heating Degree Days 25    
Moisture  
Dew Point 10 °F    
Average Humidity 33    
Maximum Humidity 53    
Minimum Humidity 15    
Precipitation  
Precipitation 0.00 in - - ()
Sea Level Pressure  
Sea Level Pressure 30.22 in    
Wind  
Wind Speed 8 mph (NNW)    
Max Wind Speed 18 mph    
Max Gust Speed 32 mph    
Visibility 10 miles    
Events      
Averages and records for this station are not official NWS values.
T = Trace of Precipitation, MM = Missing Value Source: NWS Daily Summary

Daily Weather History Graph

Daily Weather History Graph

Search for Another Location

Airport:

Trip Planner

Search our weather history database for the weather conditions in past years. The results will help you decide how hot, cold, wet, or windy it might be!

Date:

Astronomy

Apr. 06, 2013 Rise Set
Actual Time 6:28 AM EDT 7:24 PM EDT
Civil Twilight 6:00 AM EDT 7:52 PM EDT
Nautical Twilight 5:26 AM EDT 8:26 PM EDT
Astronomical Twilight 4:52 AM EDT 9:01 PM EDT
Moon 4:12 AM EDT (4/6) 3:48 PM EDT (4/6)
Length of Visible Light 13h 52m
Length of Day
12h 56m
Waning Crescent, 15% of the Moon is Illuminated
Apr 6
Waning Crescent
Apr 10
New
Apr 18
First Quarter
Apr 25
Full
May 2
Last Quarter

Hourly Weather History & Observations

Time (EDT) Temp. Windchill Dew Point Humidity Pressure Visibility Wind Dir Wind Speed Gust Speed Precip Events Conditions
12:53 AM 37.9 °F 30.5 °F 18.0 °F 45% 29.99 in 10.0 mi NNW 11.5 mph 18.4 mph N/A   Clear
1:53 AM 37.0 °F 32.4 °F 17.1 °F 44% 30.01 in 10.0 mi WNW 5.8 mph - N/A   Clear
2:53 AM 36.0 °F 31.1 °F 17.1 °F 46% 30.03 in 10.0 mi NW 5.8 mph - N/A   Clear
3:53 AM 34.0 °F 31.0 °F 16.0 °F 48% 30.06 in 10.0 mi Variable 3.5 mph - N/A   Clear
4:53 AM 33.1 °F 28.7 °F 17.1 °F 52% 30.10 in 10.0 mi NNW 4.6 mph - N/A   Clear
5:53 AM 32.0 °F 22.5 °F 15.1 °F 50% 30.14 in 10.0 mi North 12.7 mph 21.9 mph N/A   Partly Cloudy
6:53 AM 32.0 °F 22.5 °F 10.0 °F 40% 30.18 in 10.0 mi North 12.7 mph 18.4 mph N/A   Clear
7:53 AM 32.0 °F 21.6 °F 10.0 °F 40% 30.22 in 10.0 mi NNW 15.0 mph 32.2 mph N/A   Clear
8:53 AM 34.0 °F 25.0 °F 5.0 °F 30% 30.24 in 10.0 mi NNW 12.7 mph 25.3 mph N/A   Clear
9:53 AM 35.1 °F 24.5 °F 3.0 °F 26% 30.26 in 10.0 mi NNW 18.4 mph 24.2 mph N/A   Clear
10:53 AM 37.9 °F 28.9 °F 5.0 °F 25% 30.27 in 10.0 mi North 16.1 mph 26.5 mph N/A   Clear
11:53 AM 41.0 °F 35.2 °F 6.1 °F 24% 30.28 in 10.0 mi NNW 9.2 mph - N/A   Clear
12:53 PM 43.0 °F 36.4 °F 5.0 °F 21% 30.27 in 10.0 mi NW 12.7 mph 17.3 mph N/A   Clear
1:53 PM 44.1 °F 39.5 °F 3.9 °F 19% 30.27 in 10.0 mi WNW 8.1 mph 18.4 mph N/A   Clear
2:53 PM 46.0 °F 41.9 °F 3.9 °F 18% 30.26 in 10.0 mi North 8.1 mph - N/A   Clear
3:53 PM 48.0 °F - 5.0 °F 17% 30.25 in 10.0 mi NW 6.9 mph - N/A   Clear
4:53 PM 46.9 °F - 3.9 °F 17% 30.26 in 10.0 mi WSW 6.9 mph - N/A   Clear
5:53 PM 48.0 °F - 1.9 °F 15% 30.27 in 10.0 mi Calm Calm - N/A   Clear
6:53 PM 46.9 °F - 1.9 °F 16% 30.28 in 10.0 mi Calm Calm - N/A   Clear
7:53 PM 42.1 °F - 10.9 °F 28% 30.30 in 10.0 mi Calm Calm - N/A   Clear
8:53 PM 39.9 °F - 12.9 °F 33% 30.30 in 10.0 mi Calm Calm - N/A   Clear
9:53 PM 41.0 °F - 16.0 °F 36% 30.32 in 10.0 mi Calm Calm - N/A   Clear
10:53 PM 37.0 °F - 19.9 °F 50% 30.32 in 10.0 mi Calm Calm - N/A   Clear
11:53 PM 37.9 °F - 21.9 °F 53% 30.31 in 10.0 mi Calm Calm - N/A   Clear